Location: ?????????
(53.0000°N, 54.1333°E)
Time: 00:12:49
(UTC+00:00)

Daily predictions for brighter satellites

Satellite Brightness Start Highest point End
(mag) Time Altitude Azimuth Time Altitude Azimuth Time Altitude Azimuth
Cosmos 1346 Rocket 4.3 00:08:32 33° ESE 00:09:10 35° E 00:12:52 10° NNE
Cosmos 773 Rocket 4.0 00:10:19 73° SE 00:10:35 76° ESE 00:15:54 10° NNE
Cosmos 1378 Rocket 4.3 00:12:55 49° NNE 00:12:55 49° NNE 00:16:13 10° NNE
Cosmos 1674 4.0 00:13:20 38° ENE 00:13:20 38° ENE 00:16:22 10° NNE
Cosmos 1953 3.6 00:10:21 10° N 00:15:40 34° SE 00:18:13 10° SSE
Cosmos 1959 Rocket 4.3 00:09:56 10° NNW 00:16:04 79° W 00:22:11 10° S
Cosmos 1455 Rocket 4.2 00:13:50 10° N 00:18:07 43° ENE 00:22:21 10° SE
Resurs 1-4 Rocket 4.3 00:15:01 10° NNW 00:16:02 13° NNW 00:16:02 13° NNW
Cosmos 864 Rocket 4.3 00:12:48 10° NNW 00:19:01 77° W 00:25:15 10° S
Cosmos 2366 rocket 3.9 00:18:52 10° NNW 00:25:11 69° W 00:31:29 10° S
In-Cosmos 22 4.1 00:24:03 36° S 00:26:16 78° E 00:31:38 10° NNE
ISS -1.0 00:26:54 13° SE 00:27:02 13° SE 00:28:39 10° ESE
IRS-1C 4.1 00:22:43 10° N 00:27:48 60° WNW 00:27:48 60° WNW
ALOS 2.4 00:23:35 10° NNE 00:28:16 73° ESE 00:29:50 42° S
BREEZE-M DEB (TANK) 3.5 00:30:18 31° SE 00:30:18 31° SE 00:32:25 10° ESE
Meteor 1-21 4.1 00:30:08 56° SW 00:31:20 75° WNW 00:36:58 10° N
CZ-4B R/B 3.5 00:26:24 10° NNE 00:31:42 88° ESE 00:33:41 40° SSW
PAYLOAD A 3.9 00:28:33 10° NNE 00:33:42 80° WNW 00:35:07 50° SSW
ATLAS 2AS CENTAUR R/B 3.9 00:31:14 21° NW 00:35:39 39° N 00:42:16 10° ENE
Cosmos 1975 Rocket 4.2 00:31:59 10° SSE 00:36:12 44° E 00:40:29 10° NNE
SL-27 R/B 3.3 00:37:07 47° ENE 00:37:07 47° ENE 00:39:57 10° NNE
Meteor 1-4 Rocket 4.3 00:39:37 10° N 00:42:47 31° ENE 00:45:57 10° SE
ATLAS CENTAUR R/B 2.8 00:45:50 27° NNW 00:45:50 27° NNW 00:49:38 10° NE
COSMOS 2428 2.9 00:41:06 11° NNW 00:46:37 73° NE 00:52:20 10° SE
CZ-2C R/B 2.6 00:45:15 10° NNE 00:48:58 85° ESE 00:49:22 70° S
PSLV R/B 3.9 00:47:07 10° NNE 00:51:29 68° ESE 00:55:50 10° S
Cosmos 1484 Rocket 2.9 00:48:14 10° NNE 00:52:04 71° ESE 00:54:45 19° S
Cosmos 2333 4.1 00:48:58 22° NW 00:52:48 67° WSW 00:58:31 10° SSE
CZ-2C R/B 3.7 00:47:51 10° SE 00:53:10 48° ENE 00:58:32 10° N
IDEFIX/ARIANE 42P 4.1 00:49:40 10° N 00:52:20 20° NW 00:52:20 20° NW
Cosmos 1538 Rocket 4.0 00:50:27 21° SSW 00:54:09 84° ESE 00:59:34 10° NNE
USA 305 4.3 00:53:32 22° S 00:55:20 32° SE 00:59:05 10° E
Cosmos 2084 4.1 00:57:05 39° SSW 00:57:05 39° SSW 01:00:39 10° SSE
CZ-2C R/B 2.4 00:53:54 10° N 00:58:36 51° WNW 00:59:28 45° WSW
USA 276 4.0 00:58:51 21° SSE 00:59:17 22° SSE 01:01:47 10° ESE
Cosmos 44 Rocket 3.2 00:57:16 31° NW 00:59:44 86° SW 01:04:37 10° SE
SL-4 R/B 3.9 01:02:09 19° SSW 01:02:09 19° SSW 01:04:04 10° S
Cosmos 2181 Rocket 4.1 00:57:53 27° SW 01:01:06 52° WNW 01:07:15 10° N
Cosmos 292 Rocket 4.3 00:57:01 10° NNW 01:01:51 60° ENE 01:06:37 10° SE
Nadezhda 3 Rocket 4.1 00:57:52 10° S 01:04:00 77° E 01:10:12 10° NNE
Meteor 1-16 Rocket 4.1 00:59:14 10° NNW 01:04:34 54° W 01:09:44 10° S
Cosmos 2322 Rocket 4.3 01:09:39 11° SSW 01:09:39 11° SSW 01:09:49 10° SSW
Cosmos 1821 Rocket 3.9 01:03:30 10° NNW 01:09:41 68° W 01:15:44 10° S
ADEOS II 4.1 01:07:51 10° NNW 01:09:12 12° NW 01:09:12 12° NW
KORONAS-FOTON 4.0 01:10:40 46° WNW 01:10:40 46° WNW 01:14:16 10° N
Cosmos 2219 Rocket 2.1 01:05:19 12° NW 01:10:38 68° WSW 01:16:15 10° SSE
SL-16 R/B 4.1 01:05:58 10° NNW 01:10:45 26° NE 01:15:31 10° E
SKYMED 2 4.0 01:06:37 10° SSE 01:10:54 65° ENE 01:15:14 10° N
ARIANE 5 R/B 3.1 01:06:47 10° N 01:11:14 33° WNW 01:11:47 32° WNW
Cosmos 2082 Rocket 3.6 01:10:05 21° NW 01:11:17 22° NNW 01:15:43 10° NNE
Landsat 5 3.9 01:08:24 10° SSE 01:12:21 63° ENE 01:16:31 10° N
Cosmos 1818 3.7 01:11:17 27° WNW 01:14:09 55° SW 01:19:27 10° SSE
Cosmos 2360 Rocket 2.9 01:14:06 30° W 01:14:24 31° WSW 01:19:17 10° SSW
Lacrosse 5 4.0 01:16:51 10° SSW 01:16:51 10° SSW 01:17:02 10° SSW
H-2A R/B 4.1 01:11:44 10° ESE 01:15:14 28° ENE 01:18:44 10° N
Spot 4 Rocket 4.2 01:11:14 10° N 01:16:11 48° WNW 01:19:21 21° SW
NOSS 0 Rocket 4.1 01:10:07 10° NNW 01:16:20 75° NE 01:22:28 10° SE
Cosmos 1934 Rocket 4.0 01:11:53 10° N 01:18:01 83° E 01:24:12 10° SSE
Cosmos 1980 4.3 01:14:46 10° NNW 01:20:23 58° NE 01:25:58 10° SE
YAOGAN 6 3.7 01:17:08 10° NNE 01:20:35 45° E 01:24:01 10° S
Cosmos 2237 Rocket 2.9 01:15:59 10° NNW 01:21:36 56° NE 01:27:11 10° SE
Cosmos 1184 Rocket 4.0 01:23:11 25° NNW 01:23:11 25° NNW 01:25:00 10° N
MINOTAUR IV R/B 4.5 01:20:14 10° NNW 01:24:44 84° WSW 01:29:15 10° SSE
FENGYUN 3A 4.0 01:19:50 10° N 01:24:57 43° WNW 01:28:53 16° SW
USA 307 3.9 01:22:27 17° SSW 01:25:23 42° SSE 01:29:21 10° ENE
Cosmos 2333 Rocket 2.5 01:21:11 13° NW 01:26:06 45° WSW 01:31:33 10° S
CZ-4C R/B 3.5 01:22:42 10° SSE 01:26:15 63° ENE 01:29:45 10° N
Cosmos 1626 2.3 01:24:39 27° SW 01:26:20 47° WNW 01:29:56 10° N
USA 306 3.7 01:23:38 18° SW 01:26:32 46° SSE 01:30:36 10° ENE
Envisat 3.7 01:22:54 10° NNE 01:27:56 57° E 01:32:56 10° S
Cosmos 2056 Rocket 3.5 01:23:06 10° NNW 01:28:19 88° ENE 01:33:36 10° SSE
CZ-4C R/B 3.5 01:24:49 20° WNW 01:29:01 36° WSW 01:36:22 10° S
Lacrosse 5 rocket 2.0 01:28:17 26° WNW 01:30:25 50° N 01:34:50 10° ENE
Cosmos 923 Rocket 4.1 01:27:54 10° SSW 01:33:06 81° ESE 01:38:20 10° NNE
Cosmos 1680 Rocket 3.9 01:29:23 10° SSW 01:34:35 66° ESE 01:39:51 10° NNE
Cosmos 1025 Rocket 2.9 01:32:24 10° SSW 01:36:43 79° WNW 01:41:02 10° N
USA 234 4.1 01:33:33 10° ENE 01:39:53 50° SE 01:46:12 10° SW
BREEZE-M DEB (TANK) 3.0 01:40:21 20° SW 01:41:56 45° SSE 01:47:09 10° E
Cosmos 1346 Rocket 3.8 01:44:04 21° WSW 01:45:35 27° WNW 01:49:05 10° N
COSMOS 2455 3.8 01:43:07 19° WNW 01:46:36 32° NNW 01:52:00 10° NE
ERBS 4.2 01:44:44 10° SSW 01:47:32 27° SE 01:50:21 10° ENE
Cosmos 2322 4.2 01:42:32 10° NW 01:47:41 36° WSW 01:52:48 10° S
Meteor 2-5 Rocket 3.9 01:42:26 10° S 01:47:59 80° E 01:53:39 10° NNE
USA 308 3.5 01:44:38 12° SW 01:48:26 55° SSE 01:52:35 10° ENE
Cosmos 1674 3.9 01:48:09 21° WNW 01:48:28 21° WNW 01:51:24 10° NNW
ATLAS CENTAUR R/B 1.2 01:47:49 27° NW 01:48:36 45° NNE 01:51:15 10° E
Cosmos 1455 3.3 01:45:43 10° N 01:49:20 46° ENE 01:52:56 10° SSE
Cosmos 1953 3.9 01:51:40 16° WSW 01:51:40 16° WSW 01:53:09 10° SW
H-2A R/B 2.6 01:48:34 10° NNE 01:52:23 81° WNW 01:56:08 10° SSW
Meteor 1-31 Rocket 2.7 01:50:44 10° NNE 01:54:33 88° E 01:58:21 10° SSW
Cosmos 1455 Rocket 4.0 01:52:04 10° NNW 01:55:46 26° W 01:59:26 10° SW
Cosmos 1536 Rocket 3.7 01:52:12 10° S 01:56:35 80° E 02:00:59 10° NNE
CZ-4B R/B 3.6 01:53:10 10° NNE 01:56:51 86° WNW 02:00:38 10° SSW
Cosmos 1300 3.3 01:54:15 10° NNW 01:57:41 32° W 02:01:05 10° SSW
APEX 4.5 01:53:22 13° WSW 01:57:50 37° NW 02:02:04 10° NNE
COSMO-SKYMED 1 2.8 01:54:53 10° S 01:59:04 46° W 02:03:17 10° NNW
Meteor 2-10 Rocket 3.4 01:54:18 10° NNW 01:59:17 60° W 02:04:12 10° S
Cosmos 1441 Rocket 3.4 01:56:19 10° SW 01:59:53 44° WNW 02:03:30 10° N
Cosmos 1371 Rocket 4.2 01:55:12 10° NW 02:00:12 50° WSW 02:05:11 10° S
ISS -2.7 02:00:01 10° SW 02:03:14 41° SSE 02:06:26 10° E
Cosmos 2112 Rocket 4.0 01:58:11 10° SSW 02:03:26 88° WNW 02:08:46 10° NNE
Cosmos 158 Rocket 4.5 02:00:33 10° WSW 02:05:10 35° NW 02:09:44 10° NNE
ALOS 3.6 02:01:48 10° N 02:05:13 20° WNW 02:08:19 11° WSW
Cosmos 1606 Rocket 4.1 02:03:41 10° N 02:08:05 64° ENE 02:12:25 10° SSE
Cosmos 1624 Rocket 4.3 02:04:18 10° NW 02:09:25 47° WSW 02:14:28 10° S
COSMOS 2487 2.8 02:06:43 10° SW 02:09:52 37° WNW 02:13:02 10° N
Cosmos 1544 Rocket 4.3 02:06:33 10° NNW 02:10:24 30° W 02:14:13 10° SSW
IRAS Rocket 4.3 02:05:01 10° S 02:10:33 59° WSW 02:16:07 10° NNW
Cosmos 1238 4.5 02:08:22 10° SSW 02:11:16 43° WNW 02:14:18 10° N
SL-27 R/B 4.0 02:10:38 14° WNW 02:12:00 17° NW 02:14:17 10° N
Cosmos 1339 Rocket 4.4 02:06:12 10° SSW 02:12:23 75° WNW 02:18:31 10° N
Meteor 1-24 Rocket 3.6 02:07:46 10° SSW 02:13:09 81° WNW 02:18:45 10° NNE
SL-14 R/B 4.1 02:09:51 10° SW 02:13:18 29° WNW 02:16:45 10° N
Cosmos 1975 Rocket 4.0 02:10:28 10° SW 02:14:16 27° WNW 02:18:05 10° N
Meteor 1-4 Rocket 3.6 02:14:49 10° NW 02:17:36 23° W 02:20:25 10° SW
CBERS 1 LM4 rocket 4.5 02:13:26 10° N 02:18:23 59° WNW 02:23:08 10° SW
NOSS 3-4 (A) 3.9 02:15:31 10° NW 02:22:20 79° SW 02:29:59 10° SE
NOSS 3-4 (C) 3.9 02:15:37 10° NW 02:22:26 79° SW 02:30:06 10° SE
Meteor PRIRODA 3.9 02:20:42 10° NNE 02:24:26 76° ESE 02:28:06 10° S
ATLAS CENTAUR R/B 3.5 02:22:46 10° NW 02:25:57 19° N 02:29:16 10° NE
Cosmos 1484 Rocket 4.4 02:23:42 10° NNW 02:26:00 16° WNW 02:28:20 10° W
ATLAS 2AS CENTAUR R/B 3.1 02:20:20 10° NW 02:27:48 69° NE 02:34:41 10° ESE
COSMOS 2428 3.8 02:25:51 10° NW 02:30:22 25° WSW 02:34:53 10° SSW
CZ-2C R/B 3.5 02:27:07 10° NNE 02:32:23 67° ESE 02:37:19 10° S
CZ-2C R/B 3.3 02:28:32 10° SSW 02:33:36 36° W 02:38:46 10° NNW
NOSS 3-3 (A) 4.1 02:28:31 10° SW 02:34:25 90° NNW 02:41:17 10° NE
CZ-4B R/B 1.5 02:31:16 10° SSE 02:34:26 77° ENE 02:37:41 10° NNW
NOSS 3-3 (C) 4.1 02:28:35 10° SW 02:34:29 89° SE 02:41:21 10° NE
USA 305 2.9 02:30:41 10° WSW 02:34:55 85° SSE 02:39:07 10° ENE
USA 276 2.9 02:31:58 10° WSW 02:34:59 45° S 02:38:00 10° E
Cosmos 1605 Rocket 4.3 02:30:15 10° NNW 02:36:21 47° W 02:42:22 10° SSW
